Location: Borovka
(49.7741°N, 14.5280°E)
Time: 05:57:23
(UTC+00:00)

Cosmos 1943 Rocket - Pass Details

Date: 17 November 2025
Orbit: 812 x 841 km, 71.0° (Epoch: 10 December)

Event Time Altitude Azimuth Distance (km) Brightness Sun altitude
Rises 17:42:43 0° 225° (SW) 3,374 6.0 -23.4°
Reaches altitude 10° 17:45:14 10° 231° (SW) 2,440 5.3 -23.8°
Maximum altitude 17:50:39 50° 306° (NW) 1,055 2.9 -24.7°
Enters shadow 17:54:11 21° 13° (NNE) 1,778 3.7 -25.3°
